SCP
0 0 0 0 0 0 0 0 0 0 0 0 0 0 0 0 0 0 0 0 0 0 0 0 0 0 0 0 0 0 0 0 0 0 0 0 0 0 0 0 0 0 0
0 0 0 0 0 0 0 0 0 0 0 0 0 0 0 0 0 0 0 0 0 0 0 0 0 0 0 0 0 0 0 0 0 0 0 0 0 0 0 0 0 0 0
0 0 0 0 0 0 0 0 0 0 0 0 0 0 0 0 0 0 0 0 0 0 0 0 0 0 0 0 0 0 0 0 0 0 0 0 0 0 0 0 0 0 0
0 0 0 0 0 0 0 0 0 0 0 0 0 0 0 0 0 0 0 0 0 0 0 0 0 0 0 0 0 0 0 0 0 0 0 0 0 0 0 0 0 0 0
0 0 0 0 0 0 0 0 0 0 0 0 0 0 0 0 0 0 0 0 0 0 0 0 0 0 0 0 0 0 0 0 0 0 0 0 0 0 0 0 0 0 0
0 1 0 0 0 0 0 0 0 0 0 0 0 0 0 0 0 0 0 0 0 0 0 0 0 0 0 0 0 0 0 0 0 0 0 0 0 0 0 0 0 0 0
0 0 1 1 0 0 0 0 0 0 0 0 0 0 0 0 0 0 0 0 0 0 0 0 0 0 0 0 0 0 0 0 0 0 0 0 0 0 0 0 0 0 0
0 0 0 0 0 0 0 0 0 0 0 0 0 0 0 0 0 0 0 0 0 0 0 0 0 0 0 0 0 0 0 0 0 0 0 0 0 0 0 0 0 0 0
-0 0 0 0 0 0 0 0 0 0 0 0 0 0 0 0 0 0 0 0 0 0 0 0 0 0 0 0 0 0 0 0 0 0 0 0 0 0 0 0 0 0 0
-0 0 0 0 0 0 0 0 0 0 0 0 0 0 0 0 0 0 0 0 0 0 0 0 0 0 0 0 0 0 0 0 0 0 0 0 0 0 0 0 0 0 0
-0 -0 -0 0 0 0 0 0 0 0 0 0 0 0 0 0 0 0 0 0 0 0 0 0 0 0 0 0 0 0 0 0 0 0 0 0 0 0 0 0 0 0 0
-0 -0 -0 -0 0 0 0 0 0 0 0 0 0 0 0 0 0 0 0 0 0 0 0 0 0 0 0 0 0 0 0 0 0 0 0 0 0 0 0 0 0 0 0
-0 -0 -0 -0 0 0 0 0 0 0 0 0 0 0 0 0 0 0 0 0 0 0 0 0 0 0 0 0 0 0 0 0 0 0 0 0 0 0 0 0 0 0 0
-0 -0 -0 -0 -0 0 0 0 0 0 0 0 0 0 0 0 0 0 0 0 0 0 0 0 0 0 0 0 0 0 0 0 0 0 0 0 0 0 0 0 0 0 0
-0 -0 -0 -0 -1 -0 0 0 0 0 0 0 0 0 0 0 0 0 0 0 0 0 0 0 0 0 0 0 0 0 0 0 0 0 0 0 0 0 0 0 0 0 0
0 0 -0 -0 -0 -0 -0 0 0 0 0 0 0 0 0 0 0 0 0 0 0 0 0 0 0 0 0 0 0 0 0 0 0 0 0 0 0 0 0 0 0 0 0
0 0 -0 -0 -0 -0 -0 0 0 0 0 0 0 0 0 0 0 0 0 0 0 0 0 0 0 0 0 0 0 0 0 0 0 0 0 0 0 0 0 0 0 0 0
0 -0 0 -0 -0 -0 -0 -0 0 0 0 0 0 0 0 0 0 0 0 0 0 0 0 0 0 0 0 0 0 0 0 0 0 0 0 0 0 0 0 0 0 0 0
0 0 0 0 -0 -0 -0 0 0 0 0 0 0 0 0 0 0 0 0 0 0 0 0 0 0 0 0 0 0 0 0 0 0 0 0 0 0 0 0 0 0 0 0
0 0 0 -0 -0 -0 -0 -0 0 0 0 0 0 0 0 0 0 0 0 0 0 0 0 0 0 0 0 0 0 0 0 0 0 0 0 0 0 0 0 0 0 0 0
0 0 -0 -0 -0 0 0 0 0 0 0 0 0 0 0 0 0 0 0 0 0 0 0 0 0 0 0 0 0 0 0 0 0 0 0 0 0 0 0 0 0 0 0
0 -0 -0 -0 0 0 0 0 0 0 0 0 0 0 0 0 0 0 0 0 0 0 0 0 0 0 0 0 0 0 0 0 0 0 0 0 0 0 0 0 0 0 0
-0 -0 -0 0 0 0 0 0 0 0 0 0 0 0 0 0 0 0 0 0 0 0 0 0 0 0 0 0 0 0 0 0 0 0 0 0 0 0 0 0 0 0 0
0 -0 0 0 0 0 0 0 0 0 0 0 0 0 0 0 0 0 0 0 0 0 0 0 0 0 0 0 0 0 0 0 0 0 0 0 0 0 0 0 0 0 0
0 0 0 0 0 0 0 0 0 0 0 0 0 0 0 0 0 0 0 0 0 0 0 0 0 0 0 0 0 0 0 0 0 0 0 0 0 0 0 0 0 0 0
-0 0 0 0 0 0 -0 -0 0 0 0 0 0 0 0 0 0 0 0 0 0 0 0 0 0 0 0 0 0 0 0 0 0 0 0 0 0 0 0 0 0 0 0
Wind_Speed_500mb
78 71 69 67 63 56 54 53 55 55 51 49 46 48 47 44 44 36 38 40 28 29 30 30 29 25 21 18 24 22 11 13 18 19 18 14 15 16 17 19 22 23 23
85 77 81 75 68 62 56 55 51 55 52 48 51 51 47 47 46 46 46 39 31 29 31 31 30 27 24 20 25 14 22 25 23 21 18 17 17 17 18 21 21 23 24
87 88 84 83 77 70 64 58 55 50 53 54 54 49 46 46 45 44 42 37 35 32 34 34 32 30 27 25 26 25 28 31 28 20 19 18 18 19 20 21 23 23 24
87 91 92 92 91 80 72 67 62 57 55 55 54 51 49 47 45 44 41 36 38 36 32 36 36 33 29 29 28 30 34 39 30 23 21 21 22 20 23 25 25 25 26
93 100 103 97 93 91 84 79 70 68 62 61 59 54 48 43 38 38 41 43 41 32 31 31 37 35 31 28 26 31 44 39 34 27 26 25 23 24 25 24 23 24 25
72 95 102 101 97 99 97 91 80 74 68 62 55 52 48 44 39 39 39 40 39 40 43 33 35 36 36 32 33 36 50 42 35 30 27 27 27 27 26 24 24 24 25
47 44 105 108 99 103 98 98 90 83 73 63 51 43 41 45 52 53 50 45 40 40 38 43 45 41 37 35 38 38 55 48 42 36 34 31 26 26 25 23 22 24 25
93 51 32 28 98 104 105 104 100 93 84 76 72 56 44 49 51 48 48 40 44 49 50 52 47 39 39 42 45 50 52 48 44 52 42 36 32 25 22 22 21 21 22
108 97 84 61 57 109 106 107 109 99 97 85 82 63 30 31 52 59 59 53 53 56 58 54 50 44 45 48 53 62 66 64 62 53 46 39 26 22 20 19 19 18 12
100 107 101 72 74 42 116 112 111 108 98 98 89 87 62 41 43 38 64 63 61 61 61 61 56 52 53 55 78 78 77 72 67 56 50 31 24 20 17 17 18 14 19
82 92 109 83 86 75 73 118 113 118 110 102 99 97 88 57 51 59 55 71 68 62 63 62 61 61 57 62 69 80 82 78 66 48 30 23 20 17 17 16 15 16 20
72 64 92 105 100 72 47 112 126 120 119 102 103 97 102 98 80 71 55 74 73 66 65 62 65 69 70 74 73 71 73 66 55 41 32 27 21 19 18 15 12 13 4
77 60 57 87 96 84 90 103 110 128 123 116 108 100 98 101 92 81 73 76 76 62 53 65 65 66 68 70 69 67 60 59 52 39 34 29 23 14 7 10 15 6 13
74 74 54 54 76 83 87 102 56 130 116 112 111 101 97 97 96 92 80 78 62 56 57 53 67 69 71 69 67 59 53 47 39 35 32 29 21 5 10 17 8 14 20
76 80 62 56 63 67 82 95 58 98 119 112 111 104 102 99 95 96 96 79 82 62 66 60 54 72 70 65 59 53 46 39 36 35 31 20 14 9 13 15 17 13 7
70 71 64 63 70 62 76 71 64 55 106 110 116 109 103 101 99 88 92 87 84 82 68 72 77 73 73 60 51 50 43 38 36 26 21 14 10 11 16 16 18 13 15
69 72 67 72 75 68 70 72 76 53 83 111 113 100 102 100 99 101 93 87 82 84 76 68 71 64 65 58 58 51 47 36 28 23 17 15 16 16 16 17 17 17 18
69 71 70 64 79 66 61 76 80 66 55 120 113 102 102 99 97 103 98 93 93 91 85 83 71 71 73 67 58 52 39 33 24 17 15 17 12 15 18 14 15 16 15
68 64 56 60 82 78 72 64 72 55 52 116 113 105 106 104 105 105 103 97 96 94 92 85 87 82 75 66 60 47 38 23 24 19 18 13 13 12 12 11 11 12 13
65 58 50 59 75 65 50 49 61 35 74 93 103 107 114 107 110 104 107 105 100 93 80 81 96 92 76 61 54 41 42 34 26 19 15 13 11 14 11 8 10 12 10
60 58 47 54 66 41 43 36 42 37 72 70 88 98 103 101 108 112 106 101 94 84 86 97 99 88 74 63 50 45 36 28 27 20 16 13 11 13 11 13 12 13 12
55 47 58 68 42 32 33 25 38 44 63 93 75 66 64 68 80 71 61 54 54 69 77 91 81 75 61 51 46 37 34 39 29 23 19 13 12 14 12 13 15 18 14
50 45 54 36 21 18 14 17 28 53 59 63 70 66 70 77 86 93 88 86 82 75 70 72 67 57 52 44 42 42 36 31 22 20 19 17 15 13 13 16 18 18 15
40 38 16 7 17 31 19 38 58 73 89 106 110 115 112 101 88 86 91 92 88 76 69 64 57 53 43 40 36 31 26 23 21 19 21 18 18 16 15 17 19 19 23
34 17 22 33 50 68 60 76 84 100 110 107 100 93 89 90 86 86 90 93 85 75 62 55 52 48 42 37 29 25 26 23 23 22 20 16 16 13 13 17 18 14 15
19 24 39 49 54 74 79 90 103 107 107 96 94 88 81 82 74 68 74 78 79 71 59 51 44 39 31 27 24 22 18 18 16 16 14 13 12 8 6 9 10 16 21
Wind_Direction_500mb
240 234 236 245 249 250 251 247 247 247 248 243 240 235 233 232 231 225 233 240 248 239 238 238 239 239 235 227 235 241 205 226 222 236 259 264 279 287 296 308 315 317 323
241 236 235 238 244 243 253 249 246 245 248 247 240 243 242 240 241 238 240 246 247 242 240 240 240 238 230 222 237 222 228 229 238 245 250 268 277 285 295 307 314 314 318
244 239 235 234 238 237 247 245 246 242 242 244 247 246 246 245 244 244 245 243 244 243 240 240 239 236 229 220 223 220 231 232 240 241 255 266 273 282 297 303 305 312 317
244 244 239 237 238 236 239 234 240 237 237 241 244 244 245 248 247 244 244 244 244 245 241 238 237 236 233 226 219 226 228 229 235 246 255 265 270 284 297 304 306 310 315
244 245 245 243 242 235 233 233 236 236 235 235 239 241 245 245 248 246 240 237 242 236 243 241 233 235 232 226 222 225 220 229 241 252 263 271 277 286 294 297 297 302 313
252 251 240 241 235 239 234 231 231 236 234 237 237 239 237 230 233 240 243 241 237 232 231 234 239 233 229 220 219 224 226 236 251 259 270 271 278 286 286 288 297 310 311
308 267 236 235 239 231 234 232 227 229 227 228 219 224 229 230 229 231 232 236 235 233 234 232 231 237 224 222 223 219 221 235 233 253 259 259 262 270 279 287 297 299 300
294 305 296 299 236 226 229 228 228 223 226 224 206 208 212 225 232 228 229 226 221 220 223 225 231 235 222 224 225 218 216 230 250 258 250 249 249 257 268 269 278 287 299
284 296 299 306 297 225 224 221 224 221 217 216 216 201 188 210 209 214 215 217 217 219 220 226 232 236 229 224 224 211 220 234 248 246 238 234 236 244 257 274 288 294 300
299 288 290 301 297 290 224 219 221 219 220 213 210 215 214 196 178 183 205 213 216 219 223 228 228 231 227 232 221 225 230 238 240 235 237 219 229 234 253 278 283 295 289
297 289 286 292 305 302 255 219 220 219 219 216 215 212 209 198 189 189 192 203 214 218 219 219 224 226 216 217 221 218 224 229 228 220 202 208 215 236 246 264 282 270 297
293 296 277 284 291 302 320 222 223 227 213 215 222 219 218 205 201 204 196 197 201 201 209 211 214 218 218 215 214 218 223 224 218 201 199 207 216 233 251 265 276 289 309
290 290 293 287 293 292 302 297 221 215 211 216 221 219 226 222 209 206 209 194 191 198 201 206 209 211 214 215 218 219 218 218 215 199 193 198 207 219 266 288 278 213 181
287 285 293 292 287 292 301 287 273 209 209 214 222 219 220 226 221 213 209 201 186 190 199 201 208 211 214 214 215 211 207 204 191 195 203 198 207 240 274 266 160 195 237
282 281 284 281 274 279 289 284 295 216 208 213 217 223 217 222 227 223 220 217 212 192 204 202 205 211 213 212 209 200 200 195 197 197 199 194 181 225 237 186 178 206 239
287 287 287 276 270 272 277 276 287 284 212 217 214 221 221 218 222 221 221 221 225 223 210 212 213 214 208 203 197 197 193 192 191 185 182 171 235 223 219 217 222 238 272
286 282 282 279 272 276 278 279 273 288 219 212 214 213 219 217 218 220 221 223 223 225 223 211 216 210 199 194 189 191 183 179 179 178 176 222 215 200 215 219 231 262 298
292 282 285 286 280 272 271 274 272 275 251 218 210 208 214 212 215 222 221 223 224 226 226 219 204 189 188 181 182 179 175 168 170 189 194 205 205 208 226 244 259 282 301
301 292 286 283 280 287 268 265 268 294 241 207 211 218 217 214 215 218 220 224 225 225 222 213 182 177 176 171 168 167 150 157 187 178 184 190 203 230 245 261 284 307 320
307 299 293 284 275 269 264 266 270 305 232 210 209 210 210 217 217 219 220 222 221 211 205 194 172 169 165 161 155 150 159 173 185 188 183 182 203 244 273 294 318 327 326
311 302 291 286 287 259 271 268 274 263 213 195 193 204 209 213 210 211 212 204 204 195 178 168 159 155 155 155 161 169 165 170 184 190 197 196 209 229 269 297 318 329 330
318 317 299 292 286 249 263 257 261 227 202 204 197 192 187 189 194 189 176 170 172 168 157 147 146 154 157 153 161 167 175 180 171 191 196 208 224 248 271 288 303 305 305
328 311 304 293 276 249 249 227 202 171 158 152 150 150 143 141 139 132 126 130 133 136 142 144 147 147 140 152 175 175 177 186 181 182 195 194 217 237 261 277 291 289 290
340 339 335 39 143 142 134 173 163 144 135 131 133 131 131 132 131 131 134 132 128 127 128 128 131 140 150 160 174 180 176 175 173 178 191 200 212 239 261 275 276 270 283
356 22 80 110 125 133 142 145 141 130 128 124 126 128 130 128 133 137 136 131 129 129 136 139 146 148 152 156 162 172 172 178 169 177 195 213 211 227 256 262 270 278 288
46 82 95 100 108 119 144 138 130 129 122 122 119 118 119 121 124 126 125 129 131 132 137 139 140 140 143 150 157 162 171 185 186 173 190 193 192 211 221 240 255 285 307
Wind_Speed_850mb
78 71 69 67 63 56 54 53 55 55 51 49 46 48 47 44 44 36 38 40 28 29 30 30 29 25 21 18 24 22 11 13 18 19 18 14 15 16 17 19 22 23 23
85 77 81 75 68 62 56 55 51 55 52 48 51 51 47 47 46 46 46 39 31 29 31 31 30 27 24 20 25 14 22 25 23 21 18 17 17 17 18 21 21 23 24
87 88 84 83 77 70 64 58 55 50 53 54 54 49 46 46 45 44 42 37 35 32 34 34 32 30 27 25 26 25 28 31 28 20 19 18 18 19 20 21 23 23 24
87 91 92 92 91 80 72 67 62 57 55 55 54 51 49 47 45 44 41 36 38 36 32 36 36 33 29 29 28 30 34 39 30 23 21 21 22 20 23 25 25 25 26
93 100 103 97 93 91 84 79 70 68 62 61 59 54 48 43 38 38 41 43 41 32 31 31 37 35 31 28 26 31 44 39 34 27 26 25 23 24 25 24 23 24 25
72 95 102 101 97 99 97 91 80 74 68 62 55 52 48 44 39 39 39 40 39 40 43 33 35 36 36 32 33 36 50 42 35 30 27 27 27 27 26 24 24 24 25
47 44 105 108 99 103 98 98 90 83 73 63 51 43 41 45 52 53 50 45 40 40 38 43 45 41 37 35 38 38 55 48 42 36 34 31 26 26 25 23 22 24 25
93 51 32 28 98 104 105 104 100 93 84 76 72 56 44 49 51 48 48 40 44 49 50 52 47 39 39 42 45 50 52 48 44 52 42 36 32 25 22 22 21 21 22
108 97 84 61 57 109 106 107 109 99 97 85 82 63 30 31 52 59 59 53 53 56 58 54 50 44 45 48 53 62 66 64 62 53 46 39 26 22 20 19 19 18 12
100 107 101 72 74 42 116 112 111 108 98 98 89 87 62 41 43 38 64 63 61 61 61 61 56 52 53 55 78 78 77 72 67 56 50 31 24 20 17 17 18 14 19
82 92 109 83 86 75 73 118 113 118 110 102 99 97 88 57 51 59 55 71 68 62 63 62 61 61 57 62 69 80 82 78 66 48 30 23 20 17 17 16 15 16 20
72 64 92 105 100 72 47 112 126 120 119 102 103 97 102 98 80 71 55 74 73 66 65 62 65 69 70 74 73 71 73 66 55 41 32 27 21 19 18 15 12 13 4
77 60 57 87 96 84 90 103 110 128 123 116 108 100 98 101 92 81 73 76 76 62 53 65 65 66 68 70 69 67 60 59 52 39 34 29 23 14 7 10 15 6 13
74 74 54 54 76 83 87 102 56 130 116 112 111 101 97 97 96 92 80 78 62 56 57 53 67 69 71 69 67 59 53 47 39 35 32 29 21 5 10 17 8 14 20
76 80 62 56 63 67 82 95 58 98 119 112 111 104 102 99 95 96 96 79 82 62 66 60 54 72 70 65 59 53 46 39 36 35 31 20 14 9 13 15 17 13 7
70 71 64 63 70 62 76 71 64 55 106 110 116 109 103 101 99 88 92 87 84 82 68 72 77 73 73 60 51 50 43 38 36 26 21 14 10 11 16 16 18 13 15
69 72 67 72 75 68 70 72 76 53 83 111 113 100 102 100 99 101 93 87 82 84 76 68 71 64 65 58 58 51 47 36 28 23 17 15 16 16 16 17 17 17 18
69 71 70 64 79 66 61 76 80 66 55 120 113 102 102 99 97 103 98 93 93 91 85 83 71 71 73 67 58 52 39 33 24 17 15 17 12 15 18 14 15 16 15
68 64 56 60 82 78 72 64 72 55 52 116 113 105 106 104 105 105 103 97 96 94 92 85 87 82 75 66 60 47 38 23 24 19 18 13 13 12 12 11 11 12 13
65 58 50 59 75 65 50 49 61 35 74 93 103 107 114 107 110 104 107 105 100 93 80 81 96 92 76 61 54 41 42 34 26 19 15 13 11 14 11 8 10 12 10
60 58 47 54 66 41 43 36 42 37 72 70 88 98 103 101 108 112 106 101 94 84 86 97 99 88 74 63 50 45 36 28 27 20 16 13 11 13 11 13 12 13 12
55 47 58 68 42 32 33 25 38 44 63 93 75 66 64 68 80 71 61 54 54 69 77 91 81 75 61 51 46 37 34 39 29 23 19 13 12 14 12 13 15 18 14
50 45 54 36 21 18 14 17 28 53 59 63 70 66 70 77 86 93 88 86 82 75 70 72 67 57 52 44 42 42 36 31 22 20 19 17 15 13 13 16 18 18 15
40 38 16 7 17 31 19 38 58 73 89 106 110 115 112 101 88 86 91 92 88 76 69 64 57 53 43 40 36 31 26 23 21 19 21 18 18 16 15 17 19 19 23
34 17 22 33 50 68 60 76 84 100 110 107 100 93 89 90 86 86 90 93 85 75 62 55 52 48 42 37 29 25 26 23 23 22 20 16 16 13 13 17 18 14 15
19 24 39 49 54 74 79 90 103 107 107 96 94 88 81 82 74 68 74 78 79 71 59 51 44 39 31 27 24 22 18 18 16 16 14 13 12 8 6 9 10 16 21
Wind_Direction_850mb
240 234 236 245 249 250 251 247 247 247 248 243 240 235 233 232 231 225 233 240 248 239 238 238 239 239 235 227 235 241 205 226 222 236 259 264 279 287 296 308 315 317 323
241 236 235 238 244 243 253 249 246 245 248 247 240 243 242 240 241 238 240 246 247 242 240 240 240 238 230 222 237 222 228 229 238 245 250 268 277 285 295 307 314 314 318
244 239 235 234 238 237 247 245 246 242 242 244 247 246 246 245 244 244 245 243 244 243 240 240 239 236 229 220 223 220 231 232 240 241 255 266 273 282 297 303 305 312 317
244 244 239 237 238 236 239 234 240 237 237 241 244 244 245 248 247 244 244 244 244 245 241 238 237 236 233 226 219 226 228 229 235 246 255 265 270 284 297 304 306 310 315
244 245 245 243 242 235 233 233 236 236 235 235 239 241 245 245 248 246 240 237 242 236 243 241 233 235 232 226 222 225 220 229 241 252 263 271 277 286 294 297 297 302 313
252 251 240 241 235 239 234 231 231 236 234 237 237 239 237 230 233 240 243 241 237 232 231 234 239 233 229 220 219 224 226 236 251 259 270 271 278 286 286 288 297 310 311
308 267 236 235 239 231 234 232 227 229 227 228 219 224 229 230 229 231 232 236 235 233 234 232 231 237 224 222 223 219 221 235 233 253 259 259 262 270 279 287 297 299 300
294 305 296 299 236 226 229 228 228 223 226 224 206 208 212 225 232 228 229 226 221 220 223 225 231 235 222 224 225 218 216 230 250 258 250 249 249 257 268 269 278 287 299
284 296 299 306 297 225 224 221 224 221 217 216 216 201 188 210 209 214 215 217 217 219 220 226 232 236 229 224 224 211 220 234 248 246 238 234 236 244 257 274 288 294 300
299 288 290 301 297 290 224 219 221 219 220 213 210 215 214 196 178 183 205 213 216 219 223 228 228 231 227 232 221 225 230 238 240 235 237 219 229 234 253 278 283 295 289
297 289 286 292 305 302 255 219 220 219 219 216 215 212 209 198 189 189 192 203 214 218 219 219 224 226 216 217 221 218 224 229 228 220 202 208 215 236 246 264 282 270 297
293 296 277 284 291 302 320 222 223 227 213 215 222 219 218 205 201 204 196 197 201 201 209 211 214 218 218 215 214 218 223 224 218 201 199 207 216 233 251 265 276 289 309
290 290 293 287 293 292 302 297 221 215 211 216 221 219 226 222 209 206 209 194 191 198 201 206 209 211 214 215 218 219 218 218 215 199 193 198 207 219 266 288 278 213 181
287 285 293 292 287 292 301 287 273 209 209 214 222 219 220 226 221 213 209 201 186 190 199 201 208 211 214 214 215 211 207 204 191 195 203 198 207 240 274 266 160 195 237
282 281 284 281 274 279 289 284 295 216 208 213 217 223 217 222 227 223 220 217 212 192 204 202 205 211 213 212 209 200 200 195 197 197 199 194 181 225 237 186 178 206 239
287 287 287 276 270 272 277 276 287 284 212 217 214 221 221 218 222 221 221 221 225 223 210 212 213 214 208 203 197 197 193 192 191 185 182 171 235 223 219 217 222 238 272
286 282 282 279 272 276 278 279 273 288 219 212 214 213 219 217 218 220 221 223 223 225 223 211 216 210 199 194 189 191 183 179 179 178 176 222 215 200 215 219 231 262 298
292 282 285 286 280 272 271 274 272 275 251 218 210 208 214 212 215 222 221 223 224 226 226 219 204 189 188 181 182 179 175 168 170 189 194 205 205 208 226 244 259 282 301
301 292 286 283 280 287 268 265 268 294 241 207 211 218 217 214 215 218 220 224 225 225 222 213 182 177 176 171 168 167 150 157 187 178 184 190 203 230 245 261 284 307 320
307 299 293 284 275 269 264 266 270 305 232 210 209 210 210 217 217 219 220 222 221 211 205 194 172 169 165 161 155 150 159 173 185 188 183 182 203 244 273 294 318 327 326
311 302 291 286 287 259 271 268 274 263 213 195 193 204 209 213 210 211 212 204 204 195 178 168 159 155 155 155 161 169 165 170 184 190 197 196 209 229 269 297 318 329 330
318 317 299 292 286 249 263 257 261 227 202 204 197 192 187 189 194 189 176 170 172 168 157 147 146 154 157 153 161 167 175 180 171 191 196 208 224 248 271 288 303 305 305
328 311 304 293 276 249 249 227 202 171 158 152 150 150 143 141 139 132 126 130 133 136 142 144 147 147 140 152 175 175 177 186 181 182 195 194 217 237 261 277 291 289 290
340 339 335 39 143 142 134 173 163 144 135 131 133 131 131 132 131 131 134 132 128 127 128 128 131 140 150 160 174 180 176 175 173 178 191 200 212 239 261 275 276 270 283
356 22 80 110 125 133 142 145 141 130 128 124 126 128 130 128 133 137 136 131 129 129 136 139 146 148 152 156 162 172 172 178 169 177 195 213 211 227 256 262 270 278 288
46 82 95 100 108 119 144 138 130 129 122 122 119 118 119 121 124 126 125 129 131 132 137 139 140 140 143 150 157 162 171 185 186 173 190 193 192 211 221 240 255 285 307